{"data":{"norad_id":48586,"epoch":"2026-05-25T01:25:06.138048Z","epoch_age_seconds":60060,"freshness":"FRESH","line1":"1 48586U 21041AK  26145.05909882 -.00000876  00000+0 -16484-4 0  9997","line2":"2 48586  53.1609 153.7312 0000805  75.0295 285.0796 15.31688391276647","mean_motion":15.31688391,"eccentricity":8.05e-5,"inclination_deg":53.1609,"raan_deg":153.7312,"arg_perigee_deg":75.0295,"mean_anomaly_deg":285.0796,"bstar":-1.6484e-5,"rev_number":27664,"period_min":94.013900507522,"perigee_km":470.22326388523,"apogee_km":471.32593865304,"semimajor_km":6848.9116012691,"source":"CELESTRAK","updated_at":"2026-05-25T13:38:16.750459Z"}}